ATLAS D R/B, 2328

Orbit data source: Space-Track

ATLAS D R/B, 2328 is space debris in LEO originally from a launch on Thu, 14 Jul 1966 UTC launched from the Air Force Western Test Range (AFWTR). Debris objects in space refer to the collection of defunct objects orbiting the Earth. Examples of debris include non-operational satellites, rocket bodies, and fragments generated from explosions, collisions, or faulty payload assembly.

Loading next visibility...
Identifier
2328, 1966-063C
Orbit
LEO
Country
Flag of USUS
Related business
Manufacturer
ABL
Mission
Spacecraft
Bus & Motor
ALTAIR, Unknown motor
Mass
~125 kg wet, ~125 kg dry
Launch date (UTC)
1966-07-14 (60 years ago)
Launch vehicle
Unknown
Launch site
Air Force Western Test Range (AFWTR)
Object type
Payload
Rocket body
Debris
Shape & HBR
CYL, 1.1 m
Radar Cross Section
Large (>1 m²)

Expand to show TLE details & history
Last TLE update: 9 hours ago

TLE from 9 hours ago
0 ATLAS D R/B
1 02328U 66063C   26264.90561343  .00000263  00000-0  17606-4 0  9992
2 02328 144.2303 147.7100 0009277 121.1288  78.8138 13.69987596 13521
Epoch: 2026-09-21T21:44Z
TLE epoch observation values (Epoch: 2026-09-21T21:44:05.000Z)
Latitude
-11.65601°
Longitude
-15.64017°
Altitude
999.6 km
Speed
7.354 km/s
True Right ascension
20h 44m 38s
True Declination
-11° 35' 25"
Sunlit
Object was in full shadow at epoch
Visualization orbit readout
Latitude
Unknown
Longitude
Unknown
Altitude
Unknown
Speed
Unknown
Apparent Right ascension
Unknown
Apparent Declination
Unknown
Sunlit
N/A
Visualization observer readout
Local Sidereal Time
23:23:31
Azimuth
Unknown
Elevation
Unknown
Doppler factor
Unknown
Orbital elements
Apogee altitude
1,009.378 km
Perigee altitude
995.684 km
Semi-major axis
7,380.668 km
Eccentricity
0.00093
Inclination
144.2303°
RAAN
147.71°
Arg. of periapsis
121.1288°
True anomaly
78.91811°
Mean anomaly
78.8138°
Eccentric anomaly
78.86595°
Mean motion
3.42294 °/min
Orbital period
105.17 mins
BSTAR
0.000017606
Loading maneuver chart data...
Computing Atmospheric mass density...
Loading historical data...
Loading historical data...
Loading historical data...
Loading historical data...
Loading historical data...
Loading historical data...
Loading historical data...

Documentation

Showing up to 5 results
|